Content
SEND FEEDBACK

Daily
Averages
Monthly
Summary
Philippines

QUEZON CITY, PHILIPPINES


Home > Asia > Philippines
Elevation: 46 meters     Latitude: 14 39N     Longitude: 121 03E

WEATHER
 
SELECT A DAY
Number of Records: 178,098;   Date Range: 7/1/96 - 11/24/14
 
SHARE

PRINT THIS DATA

[ ← Previous Day ]
WEATHER ALMANAC - 3 MAY, 2013
[ Next Day → ]
[ °F ]   °C
Weather ElementAverageHighLow
Temperature30.4 °C36.1 °C (2:00 pm)27 °C (8:00 pm)
Dewpoint23.9 °C26.1 °C (11:00 pm)19.4 °C (2:00 pm)
Humidity68.8 %89 % (5:00 am)29 % (2:00 pm)
Barometer1008.8 hPa1011.2 hPa (11:00 pm)1007.1 hPa (2:00 am)
Wind Speed8 km/h22.2 km/h (4:00 pm)
Weather ElementAverage
Visibility9.8 km
Wind DirectionESE (126.1 °)

Weather ElementTotal
Precipitation---
Cooling Degree Days13.2 (Base 18.3)
Growing Degree Days21.6 (Base 10)
Averaged from 31 records on 3 May, 2013
WEATHER CONDITIONS BREAKOUT
WIND DIRECTION BREAKOUT
WEATHER BY HOUR - 3 MAY, 2013
[ °F ]   °C
Local TimeTemperatureDewpointHumidityBarometerVisibilityWind DirectionWind SpeedGust SpeedPrecipitationEventsConditions
1:00 AM29 °C26 °C84 %1008.1 hPa10 kmVariable3.7 km/hPartly Cloudy
2:00 AM28.9 °C25.6 °C79 %1008.1 hPa9.7 kmSouth (170°)3.5 km/hHaze
2:00 AM29 °C26 °C84 %1007.1 hPa10 kmVariable3.7 km/hPartly Cloudy
3:00 AM29 °C25 °C79 %1008.1 hPa10 kmVariable1.9 km/hPartly Cloudy
4:00 AM29 °C25 °C79 %1008.1 hPa10 kmVariable3.7 km/hPartly Cloudy
5:00 AM27.8 °C25.6 °C85 %1008.5 hPa9.7 kmSouth (190°)3.5 km/hHaze
5:00 AM28 °C26 °C89 %1008.1 hPa10 kmVariable3.7 km/hPartly Cloudy
6:00 AM28 °C26 °C89 %1009.1 hPa10 kmSSE (160°)5.6 km/hPartly Cloudy
7:00 AM29 °C26 °C84 %1009.1 hPa10 kmSouth (170°)3.7 km/hPartly Cloudy
8:00 AM31.1 °C23.3 °C55 %1010.2 hPa9.7 kmSE (130°)7.2 km/hHaze
8:00 AM31 °C23 °C62 %1010.2 hPa10 kmSE (130°)9.3 km/hPartly Cloudy
9:00 AM32 °C23 °C59 %1010.2 hPa10 kmESE (110°)7.4 km/hPartly Cloudy
10:00 AM33 °C23 °C55 %1010.2 hPa10 kmESE (110°)11.1 km/hPartly Cloudy
11:00 AM33.9 °C22.2 °C42 %1009.8 hPa9.7 kmESE (120°)7.2 km/hPartly Cloudy
11:00 AM34 °C22 °C49 %1009.1 hPa10 kmESE (120°)13 km/hPartly Cloudy
12:00 PM35 °C22 °C47 %1009.1 hPa10 kmSE (140°)14.8 km/hPartly Cloudy
1:00 PM35 °C21 °C44 %1008.1 hPa10 kmSE (130°)13 km/hPartly Cloudy
2:00 PM36.1 °C19.4 °C29 %1007.1 hPa9.7 kmSE (130°)10.8 km/hScattered Clouds
2:00 PM36 °C20 °C39 %1007.1 hPa10 kmSE (130°)11.1 km/hPartly Cloudy
3:00 PM32 °C24 °C62 %1007.1 hPa9 kmVariable9.3 km/hRainLight Rain Showers
4:00 PM29 °C24 °C74 %1007.1 hPa10 kmSSW (200°)22.2 km/hMostly Cloudy
5:00 PM29.4 °C21.1 °C53 %1007.1 hPa9.7 kmWest (260°)10.8 km/hHaze
5:00 PM30 °C21 °C58 %1007.1 hPa10 kmWest (260°)11.1 km/hScattered Clouds
6:00 PM31 °C23 °C62 %1008.1 hPa10 kmSSW (210°)9.3 km/hPartly Cloudy
7:00 PM30 °C24 °C70 %1009.1 hPa10 kmWest (270°)3.7 km/hPartly Cloudy
8:00 PM27.2 °C25.6 °C86 %1010.5 hPa9.7 kmSSW (200°)14.3 km/hRain-ThunderstormThunderstorms and Rain
8:00 PM27 °C25 °C89 %1010.2 hPa9 kmSSW (200°)14.8 km/hRain-ThunderstormLight Thunderstorms and Rain
9:00 PM28 °C26 °C89 %1010.2 hPa9 kmSouth (170°)7.4 km/hScattered Clouds
10:00 PM29 °C26 °C84 %1010.2 hPa9 kmVariable3.7 km/hScattered Clouds
11:00 PM28.3 °C26.1 °C84 %1011.2 hPa9.7 kmSSW (200°)3.5 km/hHaze
11:00 PM28 °C26 °C89 %1010.2 hPa9 kmCalmPartly Cloudy
Hourly data recorded from RPLL, located 0 kilometers away from Quezon City, Philippines







STORIES FROM OUR PARTNERS